Location: Mohawk View
(42.7837°N, 73.7885°W)
Time: 06:53:58
(UTC+00:00)

SL-08 R/B - Pass Details

Date: 17 June 2021
Orbit: 674 x 738 km, 98.5° (Epoch: 27 July)

Event Time Altitude Azimuth Distance (km) Brightness Sun altitude
Rises 08:06:03 0° 160° (SSE) 3,021 6.3 -10.7°
Reaches altitude 10° 08:08:15 10° 159° (SSE) 2,116 5.6 -10.4°
Maximum altitude 08:12:52 75° 75° (ENE) 716 3.5 -9.8°
Drops below altitude 10° 08:17:35 10° 350° (N) 2,166 6.3 -9.2°
Sets 08:19:52 0° 349° (NNW) 3,098 7.1 -8.9°
